Torna al catalogo

SL-8 DEB

AttivoLEO
NORAD 21420·DEBRIS·🇷🇺 Russia

Lanciato Jun 11, 1991 da Plesetsk Cosmodrome

Loading…

Prossimi Passaggi (prossime 24 ore)

TLE

AggiornatoSource: Space-Track

Epoca: Sep 14, 2026, 13:06 UTC

1 21420U 91041C   26257.54610931  .00000723  00000-0  20326-3 0  9993
2 21420  74.0649 156.5646 0003147  73.5993 346.9900 14.47643394848528

Traccia SL-8 DEB in tempo reale con AllMySat

Download on the App Store